Mason, MI

6:10 AM EST on December 03, 2016 (GMT -0500)
Mason Jewett

Weather History for KTEW - October, 2013

Change the Weather History Date:

Tuesday, October 29, 2013

  Actual Average (KLAN) Record (KLAN)
Temperature  
Mean Temperature 45 °F 46 °F  
Max Temperature 52 °F 55 °F 76 °F (1999)
Min Temperature 38 °F 37 °F 14 °F (1869)
Degree Days  
Heating Degree Days 20 19  
Month to date heating degree days 422  
Since 1 July heating degree days 610  
Cooling Degree Days 0 0  
Month to date cooling degree days 4  
Year to date cooling degree days 622  
Moisture  
Dew Point 33 °F    
Average Humidity 67    
Maximum Humidity 79    
Minimum Humidity 56    
Precipitation  
Precipitation 0.00 in 0.08 in 1.25 in (1900)
Month to date precipitation 2.37  
Year to date precipitation 26.96  
Snow  
Snow 0.00 in 0.00 in 2.00 in (1906)
Month to date snowfall 0.3  
Since 1 July snowfall 0.3  
Since 1 September snowfall 0.3  
Snow Depth -    
Sea Level Pressure  
Sea Level Pressure 30.35 in    
Wind  
Wind Speed 5 mph (East)    
Max Wind Speed 7 mph    
Max Gust Speed -    
Visibility 10 miles    
Events      
T = Trace of Precipitation, MM = Missing Value Source: NWS Daily Summary

Daily Weather History Graph

Daily Weather History Graph

Search for Another Location

Airport or City:

Trip Planner

Search our weather history database for the weather conditions in past years. The results will help you decide how hot, cold, wet, or windy it might be!

Date:

Astronomy

Oct. 29, 2013 Rise Set
Actual Time 8:07 AM EDT 6:34 PM EDT
Civil Twilight 7:38 AM EDT 7:03 PM EDT
Nautical Twilight 7:05 AM EDT 7:36 PM EDT
Astronomical Twilight 6:32 AM EDT 8:09 PM EDT
Moon 2:50 AM EDT (10/29) 3:53 PM EDT (10/29)
Length of Visible Light 11h 24m
Length of Day
10h 26m
Waning Crescent, 25% of the Moon is Illuminated
Oct 29
Waning Crescent
Nov 3
New
Nov 10
First Quarter
Nov 17
Full
Nov 25
Last Quarter

Hourly Weather History & Observations

Time (EDT) Temp. Windchill Dew Point Humidity Pressure Visibility Wind Dir Wind Speed Gust Speed Precip Events Conditions
12:14 AM 40.1 °F 36.9 °F 30.9 °F 70% 30.39 in 10.0 mi NE 4.6 mph - N/A   Overcast
12:33 AM 39.4 °F 36.1 °F 31.1 °F 72% 30.40 in 10.0 mi NE 4.6 mph - N/A   Overcast
12:54 AM 39.2 °F 34.2 °F 30.0 °F 70% 30.39 in 10.0 mi NE 6.9 mph - N/A   Overcast
1:14 AM 39.2 °F 34.2 °F 29.8 °F 69% 30.39 in 10.0 mi ENE 6.9 mph - N/A   Overcast
1:33 AM 38.8 °F 34.6 °F 29.3 °F 69% 30.38 in 10.0 mi ENE 5.8 mph - N/A   Overcast
1:54 AM 38.5 °F 33.4 °F 29.3 °F 70% 30.39 in 10.0 mi NE 6.9 mph - N/A   Overcast
2:14 AM 38.8 °F 34.6 °F 29.3 °F 69% 30.39 in 10.0 mi NE 5.8 mph - N/A   Overcast
2:33 AM 38.8 °F 35.4 °F 29.5 °F 69% 30.39 in 10.0 mi NE 4.6 mph - N/A   Overcast
2:54 AM 38.7 °F 33.6 °F 29.3 °F 69% 30.39 in 10.0 mi NE 6.9 mph - N/A   Overcast
3:14 AM 38.8 °F 34.6 °F 29.3 °F 69% 30.40 in 10.0 mi NE 5.8 mph - N/A   Overcast
3:33 AM 38.8 °F 35.4 °F 29.3 °F 69% 30.40 in 10.0 mi NE 4.6 mph - N/A   Overcast
3:54 AM 38.8 °F 33.8 °F 29.3 °F 69% 30.39 in 10.0 mi NE 6.9 mph - N/A   Overcast
4:13 AM 38.8 °F 34.6 °F 29.3 °F 69% 30.40 in 10.0 mi NE 5.8 mph - N/A   Overcast
4:34 AM 38.7 °F 36.3 °F 29.7 °F 70% 30.40 in 10.0 mi NE 3.5 mph - N/A   Overcast
4:54 AM 38.7 °F 36.3 °F 29.8 °F 71% 30.40 in 10.0 mi NE 3.5 mph - N/A   Overcast
5:13 AM 38.7 °F 36.3 °F 30.0 °F 71% 30.40 in 10.0 mi NE 3.5 mph - N/A   Overcast
5:34 AM 38.5 °F 34.1 °F 29.8 °F 71% 30.40 in 10.0 mi NE 5.8 mph - N/A   Overcast
5:54 AM 38.5 °F 36.1 °F 30.0 °F 72% 30.41 in 10.0 mi NE 3.5 mph - N/A   Overcast
6:13 AM 38.5 °F 35.0 °F 30.2 °F 72% 30.41 in 10.0 mi NE 4.6 mph - N/A   Overcast
6:34 AM 38.5 °F 35.0 °F 30.2 °F 72% 30.41 in 10.0 mi NE 4.6 mph - N/A   Overcast
6:54 AM 38.5 °F 34.1 °F 30.2 °F 72% 30.41 in 10.0 mi NE 5.8 mph - N/A   Overcast
7:13 AM 38.5 °F 34.1 °F 30.2 °F 72% 30.40 in 10.0 mi NE 5.8 mph - N/A   Overcast
7:34 AM 38.5 °F 36.1 °F 30.2 °F 72% 30.41 in 10.0 mi ENE 3.5 mph - N/A   Overcast
7:54 AM 38.3 °F 34.8 °F 30.4 °F 73% 30.41 in 10.0 mi NE 4.6 mph - N/A   Overcast
8:13 AM 38.3 °F 35.9 °F 30.7 °F 74% 30.41 in 10.0 mi NE 3.5 mph - N/A   Overcast
8:34 AM 38.5 °F 35.0 °F 30.7 °F 74% 30.41 in 10.0 mi NE 4.6 mph - N/A   Overcast
8:54 AM 38.7 °F 36.3 °F 30.7 °F 73% 30.41 in 10.0 mi East 3.5 mph - N/A   Overcast
9:13 AM 39.0 °F - 31.1 °F 73% 30.42 in 10.0 mi Calm Calm - N/A   Overcast
9:34 AM 39.4 °F 36.1 °F 31.6 °F 74% 30.42 in 10.0 mi East 4.6 mph - N/A   Overcast
9:54 AM 40.1 °F 35.3 °F 31.5 °F 71% 30.43 in 10.0 mi ENE 6.9 mph - N/A   Overcast
10:13 AM 40.5 °F 37.3 °F 31.5 °F 70% 30.43 in 10.0 mi East 4.6 mph - N/A   Overcast
10:34 AM 41.2 °F 39.2 °F 31.6 °F 69% 30.43 in 10.0 mi East 3.5 mph - N/A   Overcast
10:53 AM 42.1 °F 39.2 °F 32.0 °F 67% 30.42 in 10.0 mi ESE 4.6 mph - N/A   Overcast
11:13 AM 42.3 °F 39.4 °F 31.8 °F 67% 30.42 in 10.0 mi East 4.6 mph - N/A   Overcast
11:34 AM 43.3 °F 41.7 °F 32.0 °F 64% 30.42 in 10.0 mi ESE 3.5 mph - N/A   Overcast
11:53 AM 44.4 °F 42.0 °F 32.4 °F 63% 30.41 in 10.0 mi ESE 4.6 mph - N/A   Overcast
12:13 PM 44.8 °F - 32.4 °F 62% 30.41 in 10.0 mi Calm Calm - N/A   Mostly Cloudy
12:34 PM 45.9 °F 43.6 °F 32.7 °F 60% 30.39 in 10.0 mi East 4.6 mph - N/A   Scattered Clouds
12:53 PM 47.7 °F - 33.8 °F 59% 30.37 in 10.0 mi ENE 4.6 mph - N/A   Scattered Clouds
1:13 PM 48.7 °F - 34.3 °F 58% 30.36 in 10.0 mi SSE 5.8 mph - N/A   Clear
1:34 PM 50.0 °F - 35.1 °F 57% 30.36 in 10.0 mi SSE 4.6 mph - N/A   Clear
1:53 PM 49.6 °F - 35.2 °F 58% 30.34 in 10.0 mi ESE 5.8 mph - N/A   Clear
2:13 PM 50.0 °F - 35.4 °F 57% 30.33 in 10.0 mi Calm Calm - N/A   Scattered Clouds
2:34 PM 50.0 °F - 35.6 °F 58% 30.32 in 10.0 mi Calm Calm - N/A   Scattered Clouds
2:53 PM 51.1 °F - 36.0 °F 56% 30.32 in 10.0 mi Calm Calm - N/A   Scattered Clouds
3:13 PM 51.8 °F - 36.3 °F 56% 30.31 in 10.0 mi Calm Calm - N/A   Scattered Clouds
3:33 PM 52.0 °F - 37.0 °F 57% 30.31 in 10.0 mi SSE 5.8 mph - N/A   Scattered Clouds
3:53 PM 51.8 °F - 36.9 °F 57% 30.30 in 10.0 mi SSE 5.8 mph - N/A   Mostly Cloudy
4:14 PM 52.0 °F - 36.9 °F 56% 30.31 in 10.0 mi SSE 3.5 mph - N/A   Overcast
4:33 PM 51.6 °F - 37.0 °F 58% 30.30 in 10.0 mi South 4.6 mph - N/A   Mostly Cloudy
4:53 PM 52.0 °F - 36.9 °F 56% 30.29 in 10.0 mi SSE 4.6 mph - N/A   Scattered Clouds
5:14 PM 51.4 °F - 37.4 °F 59% 30.28 in 10.0 mi East 4.6 mph - N/A   Mostly Cloudy
5:33 PM 51.8 °F - 37.4 °F 58% 30.28 in 10.0 mi East 3.5 mph - N/A   Overcast
5:53 PM 51.1 °F - 37.4 °F 60% 30.28 in 10.0 mi ESE 4.6 mph - N/A   Overcast
6:14 PM 50.2 °F - 37.4 °F 62% 30.28 in 10.0 mi East 3.5 mph - N/A   Overcast
6:33 PM 49.1 °F - 37.4 °F 64% 30.28 in 10.0 mi East 5.8 mph - N/A   Overcast
6:53 PM 48.6 °F - 37.4 °F 65% 30.28 in 10.0 mi East 4.6 mph - N/A   Overcast
7:14 PM 48.2 °F - 37.4 °F 66% 30.28 in 10.0 mi East 4.6 mph - N/A   Overcast
7:33 PM 47.5 °F - 37.0 °F 67% 30.27 in 10.0 mi East 3.5 mph - N/A   Overcast
7:53 PM 46.6 °F - 36.7 °F 68% 30.27 in 10.0 mi East 3.5 mph - N/A   Scattered Clouds
8:13 PM 46.4 °F 43.5 °F 36.0 °F 67% 30.27 in 10.0 mi ESE 5.8 mph - N/A   Clear
8:34 PM 45.5 °F 42.5 °F 35.8 °F 69% 30.27 in 10.0 mi ESE 5.8 mph - N/A   Clear
8:54 PM 44.8 °F 43.3 °F 35.6 °F 70% 30.27 in 10.0 mi ESE 3.5 mph - N/A   Clear
9:13 PM 44.2 °F 42.7 °F 35.2 °F 71% 30.26 in 10.0 mi ESE 3.5 mph - N/A   Clear
9:34 PM 44.1 °F 41.5 °F 35.1 °F 71% 30.25 in 10.0 mi ESE 4.6 mph - N/A   Clear
9:53 PM 43.9 °F 42.3 °F 35.1 °F 71% 30.25 in 10.0 mi ESE 3.5 mph - N/A   Clear
10:13 PM 43.9 °F - 35.1 °F 71% 30.26 in 10.0 mi Calm Calm - N/A   Clear
10:34 PM 42.6 °F 40.9 °F 34.9 °F 74% 30.26 in 10.0 mi East 3.5 mph - N/A   Clear
10:53 PM 41.9 °F 39.0 °F 34.9 °F 76% 30.25 in 10.0 mi SE 4.6 mph - N/A   Clear
11:13 PM 41.9 °F 39.0 °F 34.9 °F 76% 30.24 in 10.0 mi SE 4.6 mph - N/A   Clear
11:34 PM 41.2 °F 39.2 °F 34.7 °F 78% 30.24 in 10.0 mi ESE 3.5 mph - N/A   Clear
11:53 PM 40.8 °F 37.8 °F 34.9 °F 79% 30.22 in 10.0 mi SE 4.6 mph - N/A   Clear